Location: Allos
(44.2333°N, 6.6333°E)
Time: 22:49:35
(UTC+00:00)

Cosmos 1821 Rocket - Pass Details

Date: 25 April 2021
Orbit: 946 x 1003 km, 82.9° (Epoch: 16 May)

Event Time Altitude Azimuth Distance (km) Brightness Sun altitude
Rises 01:09:59 0° 352° (N) 3,715 7.8 -28.3°
Reaches altitude 10° 01:12:31 10° 353° (N) 2,769 7.0 -28.1°
Maximum altitude 01:18:55 83° 82° (E) 1,015 4.0 -27.6°
Enters shadow 01:20:07 61° 158° (SSE) 1,126 4.0 -27.5°
